Ningbo Lishe International Airport
ZSNB : now visible

Airfield :











YOU CAN JOIN US ON...

 
LOGIN :

Register | Disclaimer

   EN    FR    IT 

 









Legend :    VFR   Marginal VFR   IFR   Intensive IFR   Very Intensive IFR
Visi :
Ceiling :
>= 8 km
>= 3000ft
5 to 8 km
1000 to 3000 ft
1500m to 5 km
500 to 1000 ft
800 to 1500m
200 to 500 ft
< 800m
< 200 ft
Symbols :   Thunderstorms  Fog  Heavy snow  Heavy precipitations  Wind > 20 kt







- Airport Elevation : 13 ft
- IATA code : NGB


ZSNB - Ningbo Lishe International

CURRENT METAR :
  • 221300Z 19002MPS 130V240 CAVOK 23/14 Q1010 NOSIG

EXPIRED METARs :
  • 221200Z 11002MPS CAVOK 22/14 Q1009 NOSIG
  • 221100Z 12004MPS CAVOK 24/13 Q1008 NOSIG

TAF TAF ZSNB
Valid from the 22 at 12:00 until the 23 at 12:00 UTC


220828Z 2212/2312 18004MPS 3500 BR SCT030 TX29/2306Z TN17/2220Z
ZSHA FIR / Asia



MET'MAP, your aeronautical weather chart ! - Copyright ORBIFLY December 2007 - Disclaimer

ORBIFLY MET'MAP TEAM :

Programming & Development : Alexandra Zaïnal
Concept & Development : Baudouin d'Aumeries
Co-Development & Prog : Marc-Olivier Méhu
Technical & hardware support : Manuel Goepfert

Contact : metmap@orbifly.com




SOURCES & CREDITS :

   NOAA       Earth
Advisory